Location: Oberkirch
(48.5323°N, 8.0787°E)
Time: 04:24:08
(UTC+00:00)

CUBEBUG 2 - Pass Details

Date: 20 March 2026
Orbit: 548 x 627 km, 97.9° (Epoch: 17 April)

Event Time Altitude Azimuth Distance (km) Brightness Sun altitude
Rises 02:33:15 0° 7° (N) 2,910 ? -28.4°
Reaches altitude 10° 02:35:32 10° 0° (N) 2,006 ? -28.1°
Enters shadow 02:37:37 25° 344° (NNW) 1,271 ? -27.8°
